Location: Jaite
(41.2884°N, 81.5737°W)
Time: 17:02:25
(UTC+00:00)

COSMO-SKYMED 1 - Pass Details

Date: 18 January 2020
Orbit: 621 x 623 km, 97.9° (Epoch: 26 February)

Event Time Altitude Azimuth Distance (km) Brightness Sun altitude
Rises 00:07:20 0° 4° (N) 2,913 5.9 -19.1°
Reaches altitude 10° 00:09:38 10° 357° (N) 2,001 5.1 -19.6°
Maximum altitude 00:13:40 38° 289° (WNW) 955 4.0 -20.3°
Drops below altitude 10° 00:17:40 10° 221° (SW) 1,987 5.8 -21.0°
Sets 00:19:57 0° 214° (SSW) 2,888 6.6 -21.5°
